Regional Weather Roundup
Issued by NWS

Home | Current Version | Previous Version | Text Only | Print | Product List | Glossary On
Versions: 1 2 3 4 5 6 7 8 9 10 11 12 13 14 15 16 17 18 19 20 21 22 23 24 25 26 27
000
ASUS44 KBMX 271810
RWRAL

ALABAMA REGIONAL WEATHER ROUNDUP
NATIONAL WEATHER SERVICE BIRMINGHAM AL
100 PM CDT FRI MAY 27 2016

NOTE: "FAIR" INDICATES FEW OR NO CLOUDS BELOW 12,000 FEET
WITH NO SIGNIFICANT WEATHER AND/OR OBSTRUCTIONS TO VISIBILITY.

THE REMARK "TC" DENOTES TEMPERATURE IN DEGREES CELSIUS.

ALZ001>011-014-016>018-020-271900-
NORTH ALABAMA

CITY           SKY/WX    TMP DP  RH WIND       PRES   REMARKS
MUSCLE SHOALS  CLOUDY    85  59  41 S14G24    30.03S
6HR MIN TEMP:  71; 6HR MAX TEMP:  87;

HUNTSVILLE     MOSUNNY   90  60  36 S16G24    30.03F
6HR MIN TEMP:  70; 6HR MAX TEMP:  90;

DECATUR        MOSUNNY   86  63  45 S13G22    30.04F
6HR MIN TEMP:  68; 6HR MAX TEMP:  86;

HALEYVILLE     FAIR      80  63  55 S12       30.07F
6HR MIN TEMP:  68; 6HR MAX TEMP:  82;

GADSDEN        NOT AVBL
$$

ALZ012-013-022-023-030>036-040>044-271900-
WEST CENTRAL ALABAMA

CITY           SKY/WX    TMP DP  RH WIND       PRES   REMARKS
TUSCALOOSA     CLOUDY    83  65  54 S12       30.03F
6HR MIN TEMP:  72; 6HR MAX TEMP:  84;

$$

ALZ015-024>027-033>036-040>044-271900-
CENTRAL ALABAMA

CITY           SKY/WX    TMP DP  RH WIND       PRES   REMARKS
BIRMINGHAM     CLOUDY    85  64  49 S9        30.07F
6HR MIN TEMP:  73; 6HR MAX TEMP:  86;

MONTGOMERY     PTSUNNY   86  63  45 SE9       30.05S
6HR MIN TEMP:  71; 6HR MAX TEMP:  89;

SHELBY CO ARPT CLOUDY    85  64  49 SE8G20    30.06F
6HR MIN TEMP:  68; 6HR MAX TEMP:  86;

MAXWELL AFB    PTSUNNY   87  64  46 E6        30.04F
6HR MIN TEMP:  72; 6HR MAX TEMP:  87;

GREENVILLE     FAIR      86  61  42 SE8       30.04F
6HR MIN TEMP:  69; 6HR MAX TEMP:  87;

$$

ALZ019-021-028-029-037-038-045>048-271900-
EAST CENTRAL ALABAMA

CITY           SKY/WX    TMP DP  RH WIND       PRES   REMARKS
ANNISTON       MOSUNNY   86  63  45 S8        30.06F
6HR MIN TEMP:  68; 6HR MAX TEMP:  86;

ALEXANDER CITY MOSUNNY   82  69  64 SE7       30.08F
6HR MIN TEMP:  67; 6HR MAX TEMP:  83;

AUBURN         MOSUNNY  N/A N/A N/A S10G17    30.09F
$$

ALZ051>064-271900-
SOUTHWEST ALABAMA

CITY           SKY/WX    TMP DP  RH WIND       PRES   REMARKS
MOBILE         CLOUDY    82  66  58 S14       30.04S
6HR MIN TEMP:  74; 6HR MAX TEMP:  85;

BROOKLEY FIELD PTSUNNY   83  69  62 S8        30.04S
6HR MIN TEMP:  77; 6HR MAX TEMP:  85;

EVERGREEN      CLOUDY    83  66  56 SW3       30.04F
6HR MIN TEMP:  69; 6HR MAX TEMP:  84;

$$

ALZ049-050-065>069-271900-
SOUTHEAST ALABAMA

CITY           SKY/WX    TMP DP  RH WIND       PRES   REMARKS
DOTHAN         SUNNY     86  58  38 E15       30.08F
6HR MIN TEMP:  70; 6HR MAX TEMP:  87;

OZARK          MOSUNNY   87  62  42 E8        30.03F
6HR MIN TEMP:  71; 6HR MAX TEMP:  87;

TROY           MOSUNNY   88  62  41 E10       30.05F
6HR MIN TEMP:  70; 6HR MAX TEMP:  88;

EUFAULA        FAIR      90  59  35 E12       30.04F
6HR MIN TEMP:  71; 6HR MAX TEMP:  90;

$$




USA.gov is the U.S. government's official web portal to all federal, state and local government web resources and services.